FW6321 Weather Reports


time (UTC)temp
F
wind
direction
speed
knots
gust
knots
rain 1hr
in
rain 24hr
in
rain mn
in
humidity
%
barometer
mb
20260505051842 50 20 6.1 11.3 0.00 0.18 0.00 95 1012.9
20260505051341 50 345 7.8 12.2 0.00 0.18 0.00 95 1013.0
20260505050842 50 25 7.8 12.2 0.00 0.18 0.00 95 1012.7
20260505050420 50 350 7.8 12.2 0.00 0.18 0.00 95 1012.8
20260505041339 51 16 5.2 9.6 0.00 0.18 0.00 94 1012.5
20260505040838 51 16 6.1 10.4 0.00 0.18 0.00 94 1012.6
20260505040337 51 335 6.1 11.3 0.00 0.18 0.00 94 1012.6
20260505035839 51 318 5.2 11.3 0.00 0.18 0.00 94 1012.6
20260505035341 51 31 6.1 12.2 0.00 0.18 0.00 94 1012.6
20260505034909 51 352 7.0 12.2 0.00 0.18 0.00 94 1012.6
20260505033837 51 10 5.2 9.6 0.00 0.18 0.00 94 1012.7
20260505033342 51 0 6.1 13.9 0.00 0.18 0.00 93 1012.7
20260505032843 51 353 6.1 13.9 0.00 0.18 0.00 93 1012.8
20260505032429 51 314 7.0 13.0 0.00 0.18 0.00 93 1012.9
20260505031342 51 18 5.2 11.3 0.00 0.18 0.00 93 1012.8
20260505030842 51 330 6.1 10.4 0.00 0.18 0.00 93 1012.8
20260505030346 51 325 7.0 11.3 0.00 0.18 0.00 93 1012.9
20260505025842 51 353 7.0 13.0 0.00 0.18 0.00 93 1012.9
20260505025337 51 315 6.1 13.0 0.00 0.18 0.00 93 1012.8
20260505024839 51 15 7.0 12.2 0.00 0.18 0.00 93 1012.9
20260505024336 51 335 6.1 12.2 0.00 0.18 0.00 93 1012.9
20260505023908 51 330 7.0 12.2 0.00 0.18 0.00 93 1013.1
20260505022839 51 345 7.8 12.2 0.00 0.18 0.00 93 1012.9
20260505022421 51 4 7.8 14.8 0.00 0.18 0.00 93 1012.9
20260505021335 51 344 6.1 12.2 0.00 0.18 0.00 93 1012.9
20260505020833 51 335 7.0 13.9 0.00 0.18 0.00 93 1013.0
20260505020333 51 339 7.0 13.9 0.00 0.18 0.00 93 1013.0
20260505015908 51 310 7.0 13.0 0.00 0.18 0.00 93 1013.0
20260505014846 51 5 6.1 14.8 0.00 0.18 0.00 93 1013.0
20260505014335 51 330 7.8 14.8 0.00 0.18 0.00 93 1013.0
20260505013832 51 340 9.6 14.8 0.00 0.18 0.00 93 1013.1
20260505013333 51 353 8.7 17.4 0.00 0.18 0.00 93 1013.1
20260505012834 52 330 8.7 17.4 0.00 0.18 0.00 93 1013.2
20260505012335 52 347 8.7 14.8 0.00 0.18 0.00 93 1013.1
20260505011840 52 330 8.7 14.8 0.00 0.18 0.00 93 1013.2
20260505011331 52 5 7.0 13.9 0.00 0.18 0.00 93 1013.2
20260505010832 52 358 7.0 15.6 0.00 0.18 0.00 93 1013.2
20260505010339 52 317 7.8 15.6 0.00 0.18 0.00 93 1013.3
20260505005832 52 335 7.8 16.5 0.00 0.18 0.00 93 1013.4
20260505005334 52 343 8.7 16.5 0.00 0.18 0.00 93 1013.4
20260505004836 53 335 7.8 13.0 0.00 0.18 0.00 93 1013.4
20260505004333 53 0 7.8 13.0 0.00 0.18 0.00 93 1013.4
20260505003831 53 341 7.0 13.0 0.00 0.18 0.00 93 1013.4
20260505003332 53 330 7.0 13.0 0.00 0.18 0.00 93 1013.4
20260505002833 53 356 7.8 14.8 0.00 0.18 0.00 93 1013.5
20260505002416 53 303 7.8 14.8 0.00 0.18 0.00 92 1013.5
20260505001406 53 4 7.8 15.6 0.00 0.18 0.00 93 1013.6
20260505000328 53 325 7.8 14.8 0.00 0.18 0.00 93 1013.6
20260504235825 53 325 7.8 14.8 0.00 0.18 0.00 93 1013.6
20260504235325 53 325 7.8 16.5 0.00 0.18 0.00 93 1013.6
20260504234915 53 341 7.8 16.5 0.00 0.18 0.00 93 1013.6
20260504233824 54 347 7.0 14.8 0.00 0.18 0.00 94 1013.7
20260504233326 54 300 6.1 13.0 0.00 0.18 0.00 94 1013.7
20260504232902 54 349 6.1 12.2 0.00 0.18 0.00 94 1013.7
20260504231825 54 347 7.0 13.0 0.00 0.18 0.00 94 1013.8
20260504231325 54 325 7.0 14.8 0.00 0.18 0.00 94 1013.9
20260504230825 54 8 7.8 14.8 0.00 0.18 0.00 94 1013.9
20260504230322 54 341 7.8 14.8 0.00 0.18 0.00 94 1013.8
20260504225823 54 325 7.8 14.8 0.00 0.18 0.00 94 1013.9
20260504225323 54 354 6.1 11.3 0.00 0.18 0.00 94 1013.9
20260504224822 54 339 5.2 9.6 0.00 0.18 0.00 94 1013.9
20260504224317 54 325 6.1 11.3 0.00 0.18 0.00 94 1013.9
20260504223819 55 342 6.1 11.3 0.00 0.18 0.00 94 1014.0
20260504223317 55 325 6.1 10.4 0.00 0.18 0.00 94 1014.0
20260504222816 55 316 6.1 12.2 0.00 0.18 0.00 94 1014.0
20260504222355 55 349 6.1 12.2 0.00 0.18 0.00 94 1014.0
20260504221316 55 320 7.0 11.3 0.00 0.18 0.00 94 1014.1
20260504220815 55 325 7.0 11.3 0.00 0.18 0.00 94 1014.1
20260504220351 55 346 6.1 10.4 0.00 0.18 0.00 94 1014.1
20260504215354 55 31 6.1 11.3 0.00 0.18 0.18 94 1014.1
20260504214316 55 325 6.1 13.9 0.00 0.18 0.18 93 1014.2
20260504213815 55 343 6.1 13.9 0.00 0.18 0.18 93 1014.2
20260504213318 56 345 6.1 11.3 0.00 0.18 0.18 93 1014.2
20260504212821 56 330 7.0 13.0 0.00 0.18 0.18 93 1014.3
20260504212318 56 318 7.0 13.0 0.00 0.18 0.18 93 1014.3
20260504211814 56 325 6.1 12.2 0.00 0.18 0.18 93 1014.3
20260504211316 56 344 7.0 12.2 0.00 0.18 0.18 93 1014.3
20260504210815 56 10 7.0 13.9 0.00 0.18 0.18 93 1014.4
20260504210315 56 325 7.0 13.9 0.00 0.18 0.18 93 1014.4
20260504205816 56 347 6.1 13.0 0.00 0.18 0.18 93 1014.3
20260504205318 56 64 6.1 13.0 0.00 0.18 0.18 93 1014.4
20260504204900 56 310 5.2 12.2 0.00 0.18 0.18 93 1014.4
20260504203812 56 325 6.1 12.2 0.00 0.18 0.18 92 1014.4
20260504203313 56 330 5.2 12.2 0.00 0.18 0.18 92 1014.4
20260504202811 56 335 5.2 12.2 0.00 0.18 0.18 92 1014.4
20260504202350 56 295 5.2 9.6 0.00 0.18 0.18 92 1014.3
20260504201436 56 6 6.1 13.0 0.00 0.18 0.18 92 1014.3
20260504195807 56 26 7.8 15.6 0.00 0.18 0.18 92 1014.2
20260504195316 56 0 7.8 15.6 0.00 0.18 0.18 93 1014.2
20260504194931 57 325 7.0 15.6 0.00 0.18 0.18 93 1014.1
20260504193808 57 344 7.0 13.0 0.00 0.18 0.18 93 1014.1
20260504193306 57 14 7.0 13.0 0.00 0.18 0.18 93 1014.1
20260504192906 57 9 7.8 13.0 0.00 0.18 0.18 93 1014.1
20260504191805 57 10 7.0 16.5 0.00 0.18 0.18 92 1014.0
20260504191306 58 341 6.1 11.3 0.00 0.18 0.18 93 1013.9
20260504190806 58 0 6.1 12.2 0.00 0.18 0.18 93 1013.8
20260504190305 58 341 6.1 13.0 0.00 0.18 0.18 93 1013.7
20260504185806 58 16 7.0 13.0 0.00 0.18 0.18 93 1013.7
20260504185304 58 346 6.1 11.3 0.00 0.18 0.18 93 1013.7
20260504184807 58 325 5.2 11.3 0.00 0.18 0.18 93 1013.7
20260504184303 58 335 6.1 13.0 0.00 0.18 0.18 93 1013.7
20260504183802 58 7 6.1 13.0 0.00 0.19 0.18 93 1013.7
20260504183302 58 349 6.1 13.0 0.00 0.20 0.18 93 1013.7
20260504182804 58 316 6.1 13.0 0.00 0.20 0.18 93 1013.6
20260504182334 59 10 6.1 11.3 0.00 0.20 0.18 93 1013.7
20260504181304 59 13 7.0 13.9 0.00 0.20 0.18 93 1013.6
20260504180804 59 330 7.0 13.0 0.00 0.20 0.18 93 1013.5
20260504180304 59 343 6.1 11.3 0.00 0.20 0.18 94 1013.5
20260504175803 59 335 6.1 11.3 0.00 0.20 0.18 94 1013.4
20260504175304 60 23 5.2 11.3 0.00 0.20 0.18 94 1013.5
20260504174804 60 353 5.2 9.6 0.00 0.20 0.18 94 1013.5
20260504174307 60 359 5.2 9.6 0.00 0.20 0.18 94 1013.5
20260504173804 60 325 5.2 12.2 0.00 0.20 0.18 94 1013.6
20260504173306 60 359 6.1 12.2 0.00 0.21 0.18 94 1013.5
20260504172804 60 349 7.0 11.3 0.00 0.21 0.18 94 1013.5
20260504172303 60 335 6.1 11.3 0.00 0.21 0.18 94 1013.6
20260504171803 60 320 5.2 9.6 0.00 0.21 0.18 93 1013.5
20260504171301 60 293 4.3 8.7 0.00 0.21 0.18 93 1013.5
20260504170801 60 330 4.3 9.6 0.00 0.21 0.18 93 1013.4
20260504170316 60 314 4.3 9.6 0.00 0.21 0.18 93 1013.5
20260504160301 61 310 1.7 4.3 0.03 0.25 0.18 92 1013.5
20260504150746 62 263 1.7 3.5 0.02 0.23 0.16 92 1013.5
20260504150245 62 294 1.7 3.5 0.01 0.21 0.14 92 1013.5
20260504141243 62 29 2.6 3.5 0.13 0.29 0.13 93 1013.8
20260504140743 62 34 2.6 5.2 0.13 0.30 0.13 93 1013.8
20260504140240 62 51 1.7 5.2 0.13 0.30 0.13 93 1013.8
20260504120311 65 75 2.6 6.1 0.00 0.19 0.00 86 1014.1
20260504110318 63 354 0.9 3.5 0.00 0.24 0.00 89 1014.4
20260504100215 60 69 1.7 2.6 0.00 0.31 0.00 98 1014.6
20260504080702 58 118 0.0 1.7 0.00 0.43 0.00 99 1014.3
20260504080236 57 118 0.9 2.6 0.00 0.43 0.00 99 1014.3
20260504070156 56 178 0.9 4.3 0.00 0.43 0.00 99 1013.7
20260504060223 55 172 0.9 1.7 0.00 0.43 0.00 99 1013.5